Weather History for KHAO - June, 2013

Change the Weather History Date:

Saturday, June 22, 2013

  Actual Average (KCVG) Record (KCVG)
Temperature  
Mean Temperature 76 °F 74 °F  
Max Temperature 90 °F 84 °F 97 °F (1988)
Min Temperature 64 °F 64 °F 43 °F (1992)
Degree Days  
Heating Degree Days 0 0  
Month to date heating degree days 12  
Since 1 June heating degree days 12  
Since 1 July heating degree days 4972  
Cooling Degree Days 12 9  
Month to date cooling degree days 149  
Year to date cooling degree days 243  
Since 1 June cooling degree days 149  
Growing Degree Days 26 (Base 50)    
Moisture  
Dew Point 67 °F    
Average Humidity 75    
Maximum Humidity 96    
Minimum Humidity 52    
Precipitation  
Precipitation 0.09 in 0.12 in 3.35 in (1974)
Month to date precipitation 3.10  
Year to date precipitation 21.69  
Snow  
Snow 0.00 in 0.00 in 0.00 in ()
Month to date snowfall 0.0  
Since 1 June snowfall 0.0  
Since 1 July snowfall 22.1  
Snow Depth -    
Sea Level Pressure  
Sea Level Pressure 30.14 in    
Wind  
Wind Speed 2 mph (WSW)    
Max Wind Speed 10 mph    
Max Gust Speed 20 mph    
Visibility 8 miles    
Events Rain , Thunderstorm    
T = Trace of Precipitation, MM = Missing Value Source: NWS Daily Summary

Daily Weather History Graph

Daily Weather History Graph

Search for Another Location

Airport or City:

Trip Planner

Search our weather history database for the weather conditions in past years. The results will help you decide how hot, cold, wet, or windy it might be!

Date:

Astronomy

Jun. 22, 2013 Rise Set
Actual Time 6:11 AM EDT 9:08 PM EDT
Civil Twilight 5:39 AM EDT 9:40 PM EDT
Nautical Twilight 4:58 AM EDT 10:21 PM EDT
Astronomical Twilight 4:10 AM EDT 11:09 PM EDT
Moon 8:22 PM EDT (6/22) 5:23 AM EDT (6/22)
Length of Visible Light 16h 01m
Length of Day
14h 56m
Waxing Gibbous, 99% of the Moon is Illuminated
Jun 22
Waxing Gibbous
Jun 23
Full
Jun 30
Last Quarter
Jul 8
New
Jul 15
First Quarter

Hourly Weather History & Observations

Time (EDT) Temp. Heat Index Dew Point Humidity Pressure Visibility Wind Dir Wind Speed Gust Speed Precip Events Conditions
12:53 AM 75.9 °F - 66.0 °F 71% 30.12 in 10.0 mi Calm Calm - N/A   Clear
1:53 AM 69.1 °F - 66.0 °F 90% 30.15 in 10.0 mi Calm Calm - N/A   Clear
2:53 AM 66.0 °F - 64.0 °F 93% 30.14 in 7.0 mi Calm Calm - N/A   Clear
3:53 AM 64.9 °F - 63.0 °F 93% 30.13 in 7.0 mi Calm Calm - N/A   Clear
4:53 AM 64.9 °F - 63.0 °F 93% 30.12 in 5.0 mi Calm Calm - N/A   Clear
5:53 AM 64.0 °F - 63.0 °F 96% 30.12 in 6.0 mi Calm Calm - N/A   Clear
6:22 AM 64.4 °F - 62.6 °F 94% 30.15 in 2.5 mi Calm Calm - N/A   Clear
6:31 AM 64.4 °F - 62.6 °F 94% 30.15 in 4.0 mi Calm Calm - N/A   Clear
6:53 AM 64.9 °F - 63.0 °F 93% 30.15 in 4.0 mi Calm Calm - N/A   Clear
7:53 AM 72.0 °F - 68.0 °F 87% 30.16 in 7.0 mi Calm Calm - N/A   Clear
8:53 AM 78.1 °F - 69.1 °F 74% 30.18 in 7.0 mi Calm Calm - N/A   Partly Cloudy
9:53 AM 82.0 °F 86.3 °F 71.1 °F 69% 30.18 in 10.0 mi WSW 5.8 mph - N/A   Mostly Cloudy
10:53 AM 82.9 °F 87.0 °F 70.0 °F 65% 30.18 in 10.0 mi SW 5.8 mph - N/A   Mostly Cloudy
11:53 AM 86.0 °F 91.5 °F 71.1 °F 61% 30.17 in 10.0 mi Variable 5.8 mph - N/A   Clear
12:53 PM 84.9 °F 88.8 °F 69.1 °F 59% 30.16 in 10.0 mi Variable 4.6 mph - N/A   Mostly Cloudy
1:35 PM 89.6 °F 94.7 °F 69.8 °F 52% 30.15 in 10.0 mi Variable 4.6 mph - N/A Thunderstorm Scattered Clouds
1:50 PM 89.6 °F 96.2 °F 71.6 °F 55% 30.15 in 10.0 mi SW 9.2 mph - N/A   Scattered Clouds
1:53 PM 89.1 °F 95.0 °F 71.1 °F 55% 30.13 in 10.0 mi Variable 4.6 mph - N/A   Scattered Clouds
2:19 PM 87.8 °F 92.6 °F 69.8 °F 55% 30.15 in 10.0 mi Variable 5.8 mph - N/A Thunderstorm Scattered Clouds
2:53 PM 82.0 °F 85.5 °F 69.1 °F 65% 30.14 in 10.0 mi North 4.6 mph - N/A Thunderstorm Thunderstorm
3:10 PM 78.8 °F - 66.2 °F 65% 30.16 in 2.0 mi West 10.4 mph 19.6 mph N/A Thunderstorm Unknown
3:20 PM 78.8 °F - 66.2 °F 65% 30.17 in 8.0 mi Variable 4.6 mph - 0.01 in Rain , Thunderstorm Light Thunderstorms and Rain
3:30 PM 77.0 °F - 66.2 °F 69% 30.15 in 2.0 mi Calm Calm - 0.08 in Rain , Thunderstorm Light Thunderstorms and Rain
3:38 PM 77.0 °F - 71.6 °F 83% 30.14 in 8.0 mi Variable 3.5 mph - 0.08 in Rain , Thunderstorm Light Thunderstorms and Rain
3:53 PM 79.0 °F - 70.0 °F 74% 30.12 in 7.0 mi North 4.6 mph - 0.09 in Rain Light Rain
4:53 PM 84.9 °F 90.1 °F 71.1 °F 63% 30.09 in 10.0 mi Variable 4.6 mph - 0.00 in   Partly Cloudy
5:53 PM 84.9 °F 87.6 °F 66.9 °F 55% 30.08 in 10.0 mi Variable 5.8 mph - N/A   Clear
6:53 PM 82.0 °F 85.9 °F 70.0 °F 67% 30.08 in 10.0 mi West 3.5 mph - N/A   Clear
7:53 PM 78.1 °F - 68.0 °F 71% 30.10 in 10.0 mi WSW 9.2 mph 16.1 mph N/A   Clear
8:53 PM 75.9 °F - 68.0 °F 76% 30.09 in 10.0 mi WSW 5.8 mph - N/A   Clear
9:53 PM 72.0 °F - 66.9 °F 84% 30.08 in 10.0 mi Calm Calm - N/A   Clear
10:53 PM 70.0 °F - 66.9 °F 90% 30.11 in 9.0 mi Calm Calm - N/A   Clear
11:53 PM 66.9 °F - 64.9 °F 93% 30.11 in 5.0 mi SE 4.6 mph - N/A   Clear